Location: Dead Woman Crossing
(43.5369°N, 106.3228°W)
Time: 02:55:27
(UTC+00:00)

COSMOS 2251 DEB - Pass Details

Date: 08 December 2022
Orbit: 765 x 800 km, 74.0° (Epoch: 25 January)

Event Time Altitude Azimuth Distance (km) Brightness Sun altitude
Rises 00:56:58 0° 335° (NNW) 3,251 ? -15.4°
Reaches altitude 10° 00:59:23 10° 331° (NNW) 2,317 ? -15.8°
Maximum altitude 01:04:30 56° 255° (WSW) 911 ? -16.7°
Drops below altitude 10° 01:09:35 10° 178° (S) 2,294 ? -17.6°
Sets 01:11:58 0° 174° (S) 3,217 ? -18.0°
